Location: Brookview Estates
(36.0476°N, 86.6931°W)
Time: 16:54:55
(UTC+00:00)

USA 234 - Pass Details

Date: 30 March 2020
Orbit: 1102 x 1106 km, 123.0° (Epoch: 14 May)

Event Time Altitude Azimuth Distance (km) Brightness Sun altitude
Rises 10:45:44 0° 169° (SSE) 3,902 6.1 -10.7°
Reaches altitude 10° 10:48:38 10° 181° (S) 2,947 5.4 -10.1°
Maximum altitude 10:53:57 27° 236° (SW) 1,979 4.1 -9.1°
Drops below altitude 10° 10:59:19 10° 292° (WNW) 2,958 5.0 -8.0°
Sets 11:02:16 0° 304° (NW) 3,920 5.7 -7.4°
